Location: Treviso
(45.6669°N, 12.2430°E)
Time: 00:41:27
(UTC+02:00)

ISS - Pass Details

Date: 21 May 2017
Orbit: 402 x 408 km, 51.6° (Epoch: 30 May)

Event Time Altitude Azimuth Distance (km) Brightness Sun altitude
Exits shadow 01:24:38 36° 14° (NNE) 661 -2.3 -24.0°
Drops below altitude 10° 01:27:08 10° 55° (NE) 1,468 -0.5 -24.0°
Sets 01:29:18 0° 63° (ENE) 2,329 0.5 -24.0°
